Moses Lake, WA

9:55 PM PDT on October 17, 2017 (GMT -0700)
Grant County International

Weather History for KMWH - October, 2012

Change the Weather History Date:

Monday, October 8, 2012

  Actual Average Record
Temperature  
Mean Temperature 51 °F 52 °F  
Max Temperature 69 °F 67 °F 78 °F (1980)
Min Temperature 32 °F 38 °F 30 °F (1997)
Degree Days  
Heating Degree Days 14 12  
Month to date heating degree days 95 87  
Since 1 July heating degree days 168 237  
Cooling Degree Days 0 0  
Month to date cooling degree days 0 0  
Year to date cooling degree days 719 614  
Growing Degree Days 2 (Base 50)    
Moisture  
Dew Point 28 °F    
Average Humidity 42    
Maximum Humidity 61    
Minimum Humidity 22    
Precipitation  
Precipitation 0.00 in 0.01 in 0.29 in (1997)
Month to date precipitation 0.00 0.12  
Year to date precipitation 5.58 5.94  
Sea Level Pressure  
Sea Level Pressure 29.96 in    
Wind  
Wind Speed 3 mph (WSW)    
Max Wind Speed 9 mph    
Max Gust Speed 10 mph    
Visibility 10 miles    
Events      
T = Trace of Precipitation, MM = Missing Value Source: NWS Daily Summary

Daily Weather History Graph

Daily Weather History Graph

Search for Another Location

Airport or City:

Trip Planner

Search our weather history database for the weather conditions in past years. The results will help you decide how hot, cold, wet, or windy it might be!

Date:

Astronomy

Oct. 08, 2012 Rise Set
Actual Time 7:06 AM PDT 6:21 PM PDT
Civil Twilight 6:35 AM PDT 6:52 PM PDT
Nautical Twilight 6:00 AM PDT 7:27 PM PDT
Astronomical Twilight 5:24 AM PDT 8:03 PM PDT
Moon No Moon Rise 2:38 PM PDT (10/8)
Length of Visible Light 12h 16m
Length of Day
11h 15m
Last Quarter, 45% of the Moon is Illuminated
Oct 8
Last Quarter
Oct 15
New
Oct 21
First Quarter
Oct 29
Full
Nov 6
Last Quarter

Hourly Weather History & Observations

Time (PDT) Temp. Windchill Dew Point Humidity Pressure Visibility Wind Dir Wind Speed Gust Speed Precip Events Conditions
12:52 AM 39.0 °F 34.8 °F 24.1 °F 55% 29.98 in 10.0 mi North 5.8 mph - N/A   Clear
1:52 AM 36.0 °F 30.3 °F 21.9 °F 57% 29.99 in 10.0 mi North 6.9 mph - N/A   Clear
2:52 AM 37.0 °F 33.3 °F 23.0 °F 57% 29.97 in 10.0 mi North 4.6 mph - N/A   Clear
3:52 AM 37.0 °F 33.3 °F 23.0 °F 57% 29.97 in 10.0 mi North 4.6 mph - N/A   Clear
4:52 AM 35.1 °F - 21.9 °F 59% 29.97 in 10.0 mi Calm Calm - N/A   Clear
5:52 AM 34.0 °F 31.0 °F 21.0 °F 59% 29.97 in 10.0 mi North 3.5 mph - N/A   Clear
6:52 AM 34.0 °F - 21.9 °F 61% 29.97 in 10.0 mi Calm Calm - N/A   Clear
7:52 AM 35.1 °F - 23.0 °F 61% 30.13 in 10.0 mi Calm Calm - N/A   Clear
8:52 AM 41.0 °F - 24.8 °F 53% 29.98 in 10.0 mi Calm Calm - N/A   Clear
9:52 AM 48.9 °F - 27.0 °F 43% 29.99 in 10.0 mi Calm Calm - N/A   Clear
10:52 AM 55.0 °F - 28.0 °F 35% 29.99 in 10.0 mi Calm Calm - N/A   Clear
11:52 AM 60.1 °F - 28.0 °F 30% 29.98 in 10.0 mi Variable 3.5 mph - N/A   Clear
12:52 PM 64.0 °F - 28.0 °F 26% 29.96 in 10.0 mi Calm Calm - N/A   Clear
1:52 PM 66.0 °F - 32.0 °F 28% 29.94 in 10.0 mi SW 6.9 mph - N/A   Clear
2:52 PM 68.0 °F - 28.0 °F 22% 29.93 in 10.0 mi WSW 5.8 mph - N/A   Clear
3:52 PM 69.1 °F - 30.0 °F 23% 29.92 in 10.0 mi SSW 8.1 mph - N/A   Clear
4:52 PM 69.1 °F - 28.9 °F 22% 29.91 in 10.0 mi SSW 5.8 mph - N/A   Clear
5:52 PM 66.0 °F - 33.1 °F 29% 29.91 in 10.0 mi SSW 6.9 mph - N/A   Clear
6:52 PM 63.0 °F - 30.9 °F 30% 29.91 in 9.0 mi SSW 4.6 mph - N/A   Clear
7:52 PM 60.1 °F - 33.1 °F 36% 29.92 in 9.0 mi SW 5.8 mph - N/A   Clear
8:52 PM 54.0 °F - 33.1 °F 45% 29.94 in 8.0 mi Calm Calm - N/A   Clear
9:52 PM 51.1 °F - 34.0 °F 52% 29.95 in 9.0 mi SE 3.5 mph - N/A   Clear
10:52 PM 48.9 °F - 34.0 °F 56% 29.96 in 9.0 mi Calm Calm - N/A   Clear
11:52 PM 46.0 °F - 33.1 °F 61% 29.97 in 9.0 mi Calm Calm - N/A   Clear